Cornersville, Tennessee
Current Conditions -  °F | °C
As of 12:15 PM on Saturday 25 Oct 2014 (Local Time) from KMRC Reporting Station
Few Clouds Few Clouds  
Wind Chill: 75°   Ceiling: Unl
Heat Index: 75°   Visibility: 10mi
Dew Point: 63°   Wind: 5mph
Humidity: 65%   Direction: 280°W
Pressure: 30.06"   Gusts: NA
Location:  35.36°N, 86.84°W
Report Text: KMRC 251715Z AUTO 28004KT 10SM FEW047 24/17 A3006 RMK
Loading
Personal Weather Stations






























Interactive Weather Map
Tropical Storm Tracking
New forecast layout! Learn more

10-Day Weather Forecast

Advertisements
Track Severe Weather on mobile